When you browse on this site, cookies collect data to enhance your experience and personalize the content and advertising you see.
Visit our Privacy Policy to learn more. By continuing to use the site, you agree to this use of cookies and data.
  • In Spain
  • List of Countries
  • For 7 days
  • Water Temperature
  • Satellite Maps
  • Weather Map
  • Weather Widgets
  • user-avatar
    Login

    Hourly Weather La Massana

    Today, 12 December, Wednesday

    Time Temperature Precipitation Wind Pressure Humidity
    00:00 -1°C° 0 mm 2 mps 610 mmHg 59%
    01:00 -2°C° 0 mm 2 mps 610 mmHg 60%
    02:00 -2°C° 0 mm 2 mps 610 mmHg 61%
    03:00 -2°C° 0 mm 2 mps 610 mmHg 61%
    04:00 -2°C° 0 mm 2 mps 610 mmHg 63%
    05:00 -3°C° 0 mm 2 mps 610 mmHg 64%
    06:00 -4°C° 0 mm 2 mps 609 mmHg 64%
    07:00 0°C° 0 mm 1 mps 610 mmHg 61%
    08:00 +1°C° 0 mm 1 mps 610 mmHg 58%
    09:00 +2°C° 0 mm 1 mps 611 mmHg 55%
    10:00 +3°C° 0 mm 1 mps 611 mmHg 56%
    11:00 +4°C° 0 mm 1 mps 611 mmHg 57%
    12:00 +5°C° 0 mm 1 mps 612 mmHg 60%
    13:00 +4°C° 0 mm 1 mps 611 mmHg 65%
    14:00 +4°C° 0 mm 1 mps 610 mmHg 69%
    15:00 +3°C° 0 mm 1 mps 610 mmHg 74%
    16:00 +2°C° 0 mm 1 mps 609 mmHg 78%
    17:00 0°C° 0 mm 0 mps 609 mmHg 82%
    18:00 -1°C° 0 mm 0 mps 608 mmHg 86%
    19:00 -1°C° 0 mm 0 mps 608 mmHg 87%
    20:00 -1°C° 0 mm 0 mps 607 mmHg 87%
    21:00 -2°C° 0 mm 0 mps 607 mmHg 88%
    22:00 -2°C° 0 mm 0 mps 606 mmHg 88%
    23:00 -1°C° 0 mm 1 mps 606 mmHg 87%

    Tomorrow, 13 December, Thursday

    Time Temperature Precipitation Wind Pressure Humidity
    00:00 -1°C° 0 mm 1 mps 606 mmHg 87%
    01:00 -1°C° 0 mm 1 mps 605 mmHg 87%
    02:00 -1°C° 0 mm 1 mps 605 mmHg 87%
    03:00 -2°C° 0 mm 1 mps 604 mmHg 87%
    04:00 -1°C° 0 mm 1 mps 604 mmHg 86%
    05:00 -1°C° 0 mm 1 mps 604 mmHg 85%
    06:00 -1°C° 0 mm 1 mps 603 mmHg 84%
    07:00 0°C° 0 mm 1 mps 603 mmHg 81%
    08:00 0°C° 0 mm 1 mps 603 mmHg 78%
    09:00 -1°C° 0 mm 2 mps 603 mmHg 75%
    10:00 +1°C° 0.4 mm 1 mps 603 mmHg 77%
    11:00 +1°C° 0.4 mm 1 mps 603 mmHg 79%
    12:00 +1°C° 0.4 mm 1 mps 602 mmHg 81%
    13:00 +1°C° 0.8 mm 1 mps 602 mmHg 84%
    14:00 +1°C° 0.8 mm 1 mps 602 mmHg 87%
    15:00 -2°C° 0.8 mm 2 mps 602 mmHg 91%
    16:00 -2°C° 0.3 mm 2 mps 602 mmHg 91%
    17:00 -2°C° 0.3 mm 2 mps 602 mmHg 91%
    18:00 -3°C° 0.3 mm 2 mps 602 mmHg 91%
    19:00 -3°C° 0.2 mm 2 mps 602 mmHg 89%
    20:00 -3°C° 0.2 mm 2 mps 602 mmHg 88%
    21:00 -4°C° 0.2 mm 3 mps 603 mmHg 87%
    22:00 -4°C° 0.2 mm 3 mps 603 mmHg 87%
    23:00 -4°C° 0.2 mm 3 mps 603 mmHg 87%

    Day after tomorrow, 14 December, Friday

    Time Temperature Precipitation Wind Pressure Humidity
    00:00 -4°C° 0.2 mm 3 mps 603 mmHg 87%
    01:00 -4°C° 0.2 mm 3 mps 604 mmHg 86%
    02:00 -4°C° 0.2 mm 3 mps 604 mmHg 86%
    03:00 -4°C° 0.2 mm 3 mps 604 mmHg 85%
    04:00 -4°C° 0.1 mm 3 mps 605 mmHg 85%
    05:00 -4°C° 0.1 mm 3 mps 605 mmHg 85%
    06:00 -4°C° 0.1 mm 3 mps 605 mmHg 85%
    07:00 -3°C° 0.2 mm 2 mps 606 mmHg 84%
    08:00 -2°C° 0.2 mm 2 mps 606 mmHg 83%
    09:00 -2°C° 0.2 mm 2 mps 607 mmHg 83%
    10:00 -1°C° 0.3 mm 2 mps 608 mmHg 82%
    11:00 -1°C° 0.3 mm 3 mps 608 mmHg 82%
    12:00 0°C° 0.3 mm 3 mps 609 mmHg 82%
    13:00 0°C° 0.1 mm 3 mps 609 mmHg 81%
    14:00 0°C° 0.1 mm 3 mps 609 mmHg 80%
    15:00 0°C° 0.1 mm 3 mps 609 mmHg 80%
    16:00 -1°C° 0 mm 3 mps 609 mmHg 82%
    17:00 -2°C° 0 mm 3 mps 609 mmHg 85%
    18:00 -4°C° 0 mm 3 mps 609 mmHg 87%
    19:00 -4°C° 0 mm 3 mps 610 mmHg 87%
    20:00 -4°C° 0 mm 3 mps 610 mmHg 87%
    21:00 -4°C° 0 mm 3 mps 610 mmHg 87%
    22:00 -4°C° 0 mm 3 mps 610 mmHg 87%
    23:00 -4°C° 0 mm 2 mps 610 mmHg 87%

    15 December, Saturday

    Time Temperature Precipitation Wind Pressure Humidity
    00:00 -4°C° 0 mm 2 mps 610 mmHg 87%
    01:00 -4°C° 0 mm 2 mps 610 mmHg 85%
    02:00 -5°C° 0 mm 2 mps 610 mmHg 83%
    03:00 -5°C° 0 mm 2 mps 610 mmHg 82%
    04:00 -4°C° 0 mm 2 mps 610 mmHg 78%
    05:00 -4°C° 0 mm 2 mps 610 mmHg 75%
    06:00 -4°C° 0 mm 2 mps 610 mmHg 71%
    07:00 -2°C° 0 mm 2 mps 611 mmHg 71%
    08:00 +1°C° 0 mm 1 mps 611 mmHg 70%
    09:00 +2°C° 0 mm 1 mps 612 mmHg 69%
    10:00 +3°C° 0 mm 1 mps 612 mmHg 69%
    11:00 +4°C° 0 mm 1 mps 613 mmHg 70%
    12:00 +6°C° 0 mm 1 mps 613 mmHg 71%
    13:00 +5°C° 0.2 mm 1 mps 613 mmHg 75%
    14:00 +5°C° 0.2 mm 1 mps 612 mmHg 79%
    15:00 +4°C° 0.2 mm 1 mps 612 mmHg 83%
    16:00 +4°C° 0 mm 1 mps 612 mmHg 85%
    17:00 +3°C° 0 mm 1 mps 611 mmHg 87%
    18:00 +3°C° 0 mm 1 mps 611 mmHg 89%
    19:00 +3°C° 0 mm 1 mps 611 mmHg 89%
    20:00 +3°C° 0 mm 1 mps 611 mmHg 88%
    21:00 +3°C° 0 mm 1 mps 611 mmHg 88%
    22:00 +3°C° 0 mm 1 mps 611 mmHg 88%
    23:00 +3°C° 0 mm 1 mps 611 mmHg 88%

    16 December, Sunday

    Time Temperature Precipitation Wind Pressure Humidity
    00:00 +3°C° 0 mm 1 mps 610 mmHg 88%
    01:00 +3°C° 0 mm 1 mps 610 mmHg 88%
    02:00 +2°C° 0 mm 1 mps 610 mmHg 89%
    03:00 +2°C° 0 mm 1 mps 610 mmHg 89%
    04:00 +2°C° 0 mm 1 mps 609 mmHg 90%
    05:00 +2°C° 0 mm 1 mps 609 mmHg 91%
    06:00 +1°C° 0 mm 1 mps 609 mmHg 92%
    07:00 +2°C° 0.2 mm 1 mps 609 mmHg 92%
    08:00 +2°C° 0.2 mm 1 mps 610 mmHg 92%
    09:00 +2°C° 0.2 mm 1 mps 610 mmHg 91%
    10:00 +3°C° 0.2 mm 1 mps 610 mmHg 90%
    11:00 +2°C° 0.2 mm 2 mps 610 mmHg 89%
    12:00 +3°C° 0.2 mm 2 mps 610 mmHg 88%
    13:00 +2°C° 0.2 mm 2 mps 610 mmHg 89%
    14:00 +2°C° 0.2 mm 2 mps 610 mmHg 89%
    15:00 +2°C° 0.2 mm 2 mps 610 mmHg 89%
    16:00 +2°C° 0.1 mm 1 mps 610 mmHg 92%
    17:00 +1°C° 0.1 mm 1 mps 610 mmHg 94%
    18:00 0°C° 0.1 mm 1 mps 610 mmHg 97%
    19:00 0°C° 0.1 mm 1 mps 610 mmHg 96%
    20:00 0°C° 0.1 mm 1 mps 610 mmHg 95%
    21:00 0°C° 0.1 mm 1 mps 610 mmHg 94%
    22:00 0°C° 0.1 mm 1 mps 610 mmHg 93%
    23:00 0°C° 0.1 mm 1 mps 610 mmHg 92%

    17 December, Monday

    Time Temperature Precipitation Wind Pressure Humidity
    00:00 0°C° 0.1 mm 1 mps 610 mmHg 91%
    01:00 -1°C° 0.4 mm 1 mps 610 mmHg 91%
    02:00 -1°C° 0.4 mm 1 mps 610 mmHg 92%
    03:00 -1°C° 0.4 mm 1 mps 610 mmHg 92%
    04:00 -1°C° 0.7 mm 1 mps 610 mmHg 92%
    05:00 -1°C° 0.7 mm 1 mps 610 mmHg 92%
    06:00 -4°C° 0.7 mm 2 mps 611 mmHg 92%
    07:00 -3°C° 0.1 mm 2 mps 611 mmHg 89%
    08:00 -3°C° 0.1 mm 2 mps 612 mmHg 85%
    09:00 -3°C° 0.1 mm 2 mps 612 mmHg 82%
    10:00 -2°C° 0 mm 2 mps 613 mmHg 76%
    11:00 -1°C° 0 mm 2 mps 613 mmHg 71%
    12:00 +1°C° 0 mm 2 mps 614 mmHg 66%
    13:00 +1°C° 0 mm 2 mps 613 mmHg 67%
    14:00 +1°C° 0 mm 2 mps 613 mmHg 68%
    15:00 +2°C° 0 mm 1 mps 613 mmHg 69%
    16:00 0°C° 0 mm 1 mps 613 mmHg 73%
    17:00 -1°C° 0 mm 1 mps 612 mmHg 77%
    18:00 -3°C° 0 mm 1 mps 612 mmHg 82%
    19:00 -3°C° 0 mm 1 mps 612 mmHg 81%
    20:00 -4°C° 0 mm 1 mps 612 mmHg 80%
    21:00 -4°C° 0 mm 1 mps 612 mmHg 79%
    22:00 -4°C° 0 mm 1 mps 612 mmHg 80%
    23:00 -4°C° 0 mm 1 mps 612 mmHg 81%
    Show more